[[{"header":{"parameterUnit":"m.s-1","parameterCategory":1,"la1":30.2991,"la2":30.254,"lo1":-89.0895,"lo2":-89.0444,"dy":0.0017,"dx":0.0017,"nx":28,"ny":28,"refTime":"2025-03-18T21:00:00:Z","depth":0,"parameterNumber":2,"parameterNumberName":"U-component_of_WINDS"},"data":[0,0,0,0,0,0,0,0,0,0,0,0,0,0,0,0,0,0,0,0,0,0,0,0,0,0,0,0,0,0,0,0,0,0,0,0,0,0,0,0,0,0,0,0,0,0,0,0,0,0,0,0,0,0,0,0,0,0,6.3054,6.3055,0,6.3122,6.3123,6.3124,6.3011,6.3007,6.3004,6.3,6.3072,6.3078,6.3083,0,0,0,0,0,0,0,0,0,0,0,0,0,6.2828,6.2832,6.3054,6.3055,6.3056,6.3122,6.3123,6.3124,6.3012,6.3007,6.3003,6.2998,6.3071,6.3077,6.3084,0,0,0,0,0,0,0,0,0,0,0,0,0,6.2914,6.2834,6.3054,6.3008,6.3004,6.3122,6.3123,6.3124,6.3013,6.3007,6.3001,6.2996,6.3068,6.3076,6.3085,6.3252,0,0,6.311,6.3113,0,0,0,0,0,0,0,0,6.2909,6.2923,6.3014,6.3011,6.3007,6.3052,6.307,6.3167,6.3014,6.301,6.3,6.2993,6.3071,6.3078,6.3104,6.3255,6.3258,6.3111,6.3116,6.3119,6.3122,0,0,0,0,0,0,0,6.2904,6.2919,6.3081,6.3015,6.3011,6.2984,6.299,6.3088,6.3072,6.301,6.3002,6.3011,6.3068,6.3096,6.3105,6.3259,6.311,6.3118,6.3123,6.3126,6.355,6.3556,0,0,0,0,0,0,6.2903,6.2915,6.3079,6.3083,6.2943,6.2993,6.2999,6.3044,6.307,6.3069,6.3016,6.3006,6.3085,6.3095,6.3107,6.3303,6.3119,6.3127,6.3132,6.3544,6.3551,6.3558,0,0,0,0,0,0,6.2899,6.2919,6.3076,6.2997,6.3015,6.3003,6.3054,6.3048,6.3076,6.3075,6.3072,6.3048,6.3081,6.3095,6.3216,6.3304,6.3131,6.3138,6.3536,6.3546,6.3555,6.3697,0,0,0,0,0,0,6.2893,6.2918,6.2981,6.2999,6.3019,6.3184,6.3059,6.3054,6.3091,6.3078,6.3104,6.3103,6.3077,6.3204,6.3224,6.3312,6.3145,6.3528,6.3541,6.3552,6.3685,6.371,6.3733,0,0,0,0,0,6.2885,6.3019,6.2984,6.3005,6.3098,6.3189,6.3201,6.3168,6.3098,6.3161,6.3161,6.3102,6.3292,6.3218,6.3239,6.3331,6.3522,6.3537,6.3551,6.3674,6.3705,6.3732,0,0,0,0,0,0,6.3011,6.302,6.2982,6.3126,6.3158,6.317,6.3248,6.3202,6.3255,6.3241,6.3198,6.3205,6.3335,6.3345,6.3263,6.3494,6.3395,6.3415,6.3482,6.3512,6.3535,6.3529,6.3152,0,0,0,0,0,6.3056,6.3129,6.3133,6.326,6.3277,6.3261,6.3299,6.3271,6.3303,6.3316,6.3323,6.3357,6.3423,6.3468,6.353,6.3686,6.369,6.376,6.3784,6.3804,6.382,6.3903,6.3934,6.3604,6.3604,6.3604,0,0,6.3149,6.3163,6.3211,6.3285,6.3306,6.3383,6.3273,6.3359,6.3415,6.3329,6.3442,6.345,6.3485,6.3624,6.3685,6.3636,6.3912,6.3822,6.3837,6.3843,6.392,6.3952,6.3979,6.3614,6.3612,6.3611,0,0,6.3356,6.3375,6.3482,6.3505,6.3539,6.3527,6.3553,6.3573,6.3574,6.3688,6.3624,6.3691,6.3808,6.3834,6.3863,6.4082,6.403,6.4104,6.4228,6.4309,6.4335,6.4358,6.4434,6.4463,6.4121,6.4121,6.4121,0,6.3468,6.358,6.3543,6.3633,6.3667,6.3592,6.37,6.3725,6.3778,6.3803,6.3747,6.3891,6.3909,6.4053,6.4106,6.4133,6.4161,6.41,6.4334,6.4357,6.4377,6.445,6.4479,6.413,6.4129,6.4128,6.4127,0,6.3715,6.3794,6.3877,6.3928,6.3972,6.4071,6.4049,6.4098,6.4066,6.4061,6.4177,6.4197,6.426,6.4293,6.4263,6.4433,6.4401,6.4341,6.4241,6.4418,6.4485,6.4513,6.4142,6.4139,6.4136,6.4134,0,0,6.4003,6.4032,6.4063,6.4085,6.4117,6.4178,6.4274,6.4335,6.4378,6.4417,6.4496,6.4596,6.4541,6.4574,6.4547,6.4618,6.4789,6.4549,6.4549,6.4591,6.4975,6.5019,6.5052,6.4756,6.4761,6.4765,6.4972,0,6.4208,6.4372,6.4342,6.4502,6.4574,6.4505,6.4588,6.4617,6.4615,6.4676,6.4674,6.4745,6.4667,6.4686,6.4754,6.4754,6.4865,6.4739,6.4828,6.4831,6.4819,6.5087,6.5133,6.5328,6.4998,6.5003,6.5006,0,6.4469,6.4517,6.4685,6.4705,6.4734,6.4809,6.4863,6.4923,6.4955,6.4948,6.4985,6.4945,6.5041,6.4941,6.5072,6.4987,6.5022,6.5027,6.5034,6.5039,6.4928,6.5098,6.5389,6.5418,6.5047,6.5044,6.5041,0,6.4661,6.4768,6.4881,6.4902,6.4929,6.4984,6.4997,6.5023,6.5062,6.511,6.5134,6.5193,6.5225,6.5271,6.5248,6.5178,6.5383,6.5282,6.5379,6.538,6.5424,6.5421,6.5723,6.5451,6.545,6.545,6.5449,0,6.4892,6.4997,6.4967,6.5037,6.5152,6.5117,6.5232,6.5237,6.5261,6.5331,6.5275,6.5342,6.5308,6.5373,6.5356,6.5466,6.5481,6.5478,6.5472,6.5482,6.5482,6.5502,6.5487,6.5457,6.5456,6.5454,6.5453,0,6.5124,6.5109,6.5227,6.5243,6.5249,6.5334,6.5347,6.5412,6.5406,6.5495,6.5514,6.5504,6.5577,6.5559,6.5639,6.5627,6.5766,6.5744,6.5755,6.5749,6.5846,6.5837,6.617,6.6211,6.5915,6.5918,6.592,0,6.5272,6.5351,6.5375,6.5417,6.5435,6.5504,6.5543,6.5512,6.5555,6.5597,6.5657,6.5725,6.5777,6.5897,6.5898,6.5959,6.5936,6.6049,6.5945,6.5952,6.5935,6.593,6.5937,6.6069,6.6072,6.6075,6.6077,0,6.5535,6.5524,6.5582,6.5638,6.5686,6.5729,6.5767,6.5805,6.5777,6.5828,6.5901,6.5942,6.6023,6.6091,6.6147,6.6161,6.6115,6.6111,6.6136,6.6145,6.6148,6.6146,6.5809,6.6102,6.61,6.6098,6.6097,6.6096,6.5728,6.5794,6.5821,6.5888,6.5913,6.595,6.6011,6.6013,6.6074,6.6136,6.6115,6.6199,6.6228,6.6298,6.632,6.6385,6.6342,6.638,6.6388,6.6398,6.6408,6.614,6.6395,6.6395,6.6394,6.6393,6.6393,0,6.5986,6.6001,6.6063,6.6117,6.617,6.6121,6.6161,6.6208,6.6282,6.6313,6.6366,6.645,6.6516,6.6522,6.6583,6.6634,6.6614,6.6651,6.6646,6.665,6.6444,6.6415,6.6666,6.6666,6.6666,6.6666,6.6666,6.6666,6.6127,6.6236,6.6228,6.6349,6.6363,6.6444,6.647,6.6503,6.6528,6.6624,6.6678,6.6682,6.6703,6.6765,6.6823,6.6823,6.6848,6.6893,6.6884,6.6692,6.6665,6.6638,6.6611,6.6899,6.6899,6.7084,6.7086,6.7087]},{"header":{"parameterUnit":"m.s-1","parameterCategory":1,"la1":30.2991,"la2":30.254,"lo1":-89.0895,"lo2":-89.0444,"dy":0.0017,"dx":0.0017,"nx":28,"ny":28,"refTime":"2025-03-18T21:00:00:Z","depth":0,"parameterNumber":3,"parameterNumberName":"V-component_of_WINDS"},"data":[0,0,0,0,0,0,0,0,0,0,0,0,0,0,0,0,0,0,0,0,0,0,0,0,0,0,0,0,0,0,0,0,0,0,0,0,0,0,0,0,0,0,0,0,0,0,0,0,0,0,0,0,0,0,0,0,0,0,2.2652,2.2653,0,2.2804,2.2806,2.2808,2.2839,2.2838,2.2836,2.2835,2.2993,2.2998,2.3003,0,0,0,0,0,0,0,0,0,0,0,0,0,2.2387,2.2391,2.2651,2.2653,2.2655,2.2804,2.2806,2.2808,2.2839,2.2838,2.2836,2.2835,2.2991,2.2997,2.3004,0,0,0,0,0,0,0,0,0,0,0,0,0,2.2517,2.2393,2.2651,2.2689,2.2693,2.2804,2.2806,2.2809,2.2839,2.2838,2.2836,2.2834,2.2989,2.2997,2.3005,2.3089,0,0,2.3029,2.3032,0,0,0,0,0,0,0,0,2.2509,2.2526,2.2681,2.2686,2.2692,2.2801,2.2771,2.2903,2.284,2.2784,2.2835,2.2833,2.293,2.2943,2.2976,2.3096,2.3103,2.303,2.3034,2.3038,2.304,0,0,0,0,0,0,0,2.25,2.252,2.2712,2.2683,2.269,2.2698,2.2714,2.2796,2.2865,2.2789,2.2791,2.2809,2.2933,2.2968,2.298,2.3105,2.3029,2.3036,2.3041,2.3044,2.3302,2.3304,0,0,0,0,0,0,2.2485,2.2512,2.2707,2.2717,2.2594,2.2704,2.2722,2.2768,2.2864,2.2877,2.281,2.281,2.2955,2.297,2.2985,2.309,2.3038,2.3045,2.305,2.33,2.3302,2.3304,0,0,0,0,0,0,2.2479,2.2502,2.2701,2.2615,2.2641,2.271,2.2761,2.2771,2.2806,2.2881,2.2893,2.2833,2.2954,2.2974,2.3063,2.3096,2.3049,2.3056,2.3297,2.33,2.3303,2.3299,0,0,0,0,0,0,2.2471,2.2499,2.2532,2.2616,2.2646,2.2776,2.2763,2.2776,2.282,2.2821,2.2906,2.2918,2.2955,2.3051,2.307,2.3106,2.3062,2.3295,2.3299,2.3302,2.3297,2.3302,2.3306,0,0,0,0,0,2.2461,2.2525,2.2534,2.2557,2.2688,2.2777,2.2795,2.2835,2.2822,2.2856,2.2903,2.2915,2.3089,2.3059,2.3082,2.312,2.3293,2.3298,2.3302,2.3295,2.3301,2.3306,0,0,0,0,0,0,2.2444,2.2537,2.2547,2.264,2.27,2.2782,2.2826,2.2841,2.2907,2.2905,2.2953,2.2971,2.3057,2.3098,2.3063,2.3206,2.319,2.3199,2.3177,2.3183,2.3188,2.3176,2.3069,0,0,0,0,0,2.2451,2.2516,2.2594,2.2668,2.2698,2.2756,2.2797,2.2823,2.2888,2.2914,2.2968,2.3031,2.3099,2.3143,2.3211,2.3303,2.3321,2.334,2.3345,2.3348,2.3356,2.3407,2.3416,2.332,2.332,2.332,0,0,2.2466,2.2525,2.2563,2.2666,2.2716,2.2782,2.2778,2.2848,2.2898,2.2925,2.3011,2.3053,2.3126,2.3216,2.3259,2.3253,2.3386,2.3354,2.3356,2.3362,2.3413,2.3422,2.343,2.3323,2.3322,2.3322,0,0,2.2527,2.2578,2.2646,2.2696,2.2771,2.281,2.2826,2.2905,2.2934,2.3022,2.3043,2.3102,2.322,2.3271,2.3312,2.3391,2.3405,2.3412,2.3437,2.3486,2.3493,2.35,2.3528,2.3538,2.3419,2.3419,2.3419,0,2.2537,2.2637,2.2678,2.2748,2.2792,2.2819,2.2887,2.2934,2.3027,2.3057,2.3049,2.3196,2.3247,2.335,2.3369,2.3401,2.3421,2.3403,2.3489,2.3496,2.3503,2.353,2.3541,2.342,2.342,2.342,2.342,0,2.2644,2.2714,2.2759,2.2848,2.2897,2.2966,2.3017,2.3063,2.3084,2.3123,2.3212,2.3274,2.3354,2.338,2.3402,2.3485,2.3479,2.3479,2.3464,2.3512,2.3538,2.3549,2.342,2.342,2.342,2.342,0,0,2.27,2.281,2.2826,2.2866,2.2951,2.3006,2.3075,2.3152,2.319,2.3254,2.3313,2.3411,2.3411,2.3458,2.3486,2.3529,2.3587,2.3524,2.3526,2.3533,2.3682,2.3681,2.3692,2.3596,2.3598,2.36,2.3676,0,2.2771,2.2895,2.2934,2.3038,2.3102,2.3128,2.3188,2.3247,2.3285,2.3345,2.3387,2.3456,2.3452,2.348,2.3524,2.357,2.3617,2.3566,2.3651,2.3654,2.3632,2.3706,2.3706,2.3774,2.3686,2.3688,2.3689,0,2.2871,2.2935,2.3045,2.3121,2.3149,2.3203,2.3277,2.3334,2.34,2.3425,2.3477,2.3501,2.3574,2.3554,2.3655,2.3619,2.3657,2.3685,2.3688,2.3698,2.3674,2.3717,2.3797,2.3807,2.3706,2.3705,2.3703,0,2.2899,2.3013,2.3094,2.3128,2.3218,2.3255,2.3295,2.336,2.3404,2.3468,2.3497,2.357,2.3609,2.3665,2.3707,2.3689,2.3805,2.3789,2.3827,2.3826,2.3851,2.3848,2.3937,2.3875,2.3875,2.3875,2.3874,0,2.2974,2.304,2.3108,2.3157,2.3232,2.3276,2.3349,2.339,2.3447,2.3505,2.3532,2.3585,2.3639,2.3699,2.3734,2.3812,2.383,2.3852,2.386,2.3849,2.3846,2.3874,2.387,2.3877,2.3877,2.3876,2.3876,0,2.3019,2.3066,2.3156,2.3234,2.3255,2.3307,2.3374,2.3423,2.3462,2.3534,2.3554,2.3615,2.3688,2.3736,2.383,2.3852,2.3937,2.3945,2.3915,2.3919,2.3954,2.395,2.4064,2.4081,2.4007,2.4008,2.4008,0,2.3063,2.3115,2.3198,2.3238,2.3278,2.3343,2.3388,2.3433,2.3478,2.3558,2.3597,2.3671,2.3733,2.3848,2.3901,2.3972,2.3981,2.4016,2.3992,2.3979,2.3981,2.3977,2.3982,2.402,2.402,2.4021,2.4021,0,2.3137,2.3158,2.3221,2.3293,2.3345,2.3404,2.3462,2.3494,2.3549,2.3599,2.3673,2.3721,2.3816,2.3889,2.3965,2.4006,2.4023,2.4028,2.4041,2.403,2.401,2.4021,2.3925,2.4025,2.4025,2.4025,2.4024,2.4024,2.3183,2.3229,2.3295,2.3365,2.3413,2.3467,2.3517,2.3562,2.3624,2.3705,2.3727,2.3805,2.387,2.3973,2.4015,2.4076,2.4073,2.4091,2.4096,2.4099,2.4099,2.4001,2.409,2.409,2.409,2.409,2.409,0,2.3258,2.3301,2.3364,2.3445,2.35,2.351,2.3576,2.362,2.3688,2.3747,2.3807,2.3892,2.3963,2.4021,2.4094,2.4132,2.4142,2.415,2.4147,2.4156,2.4099,2.408,2.4141,2.4141,2.4141,2.4141,2.4141,2.4141,2.3303,2.3382,2.341,2.3514,2.3557,2.3632,2.3669,2.3719,2.3766,2.3859,2.3918,2.3955,2.4014,2.4092,2.4157,2.4172,2.4198,2.4204,2.4221,2.4166,2.416,2.4155,2.4138,2.421,2.421,2.4274,2.4274,2.4275]}]]